This is the latest recevied weather packets stored in our database for station/object KY4OP-13. If no packets are shown the sender has not sent any weather packets the latest 10 day(s).
| Time | Temp. | Humidity | Pressure | Rain* | Wind** | Luminosity | Snow |
|---|---|---|---|---|---|---|---|
| 1777995895 | 25.56° C | 44% | 1014.8 hPa | 0 mm | - | - | - |
| 1777995591 | 26.11° C | 43% | 1014.9 hPa | 0 mm | - | - | - |
| 1777995290 | 25° C | 46% | 1014.9 hPa | 0 mm | - | - | - |
| 1777994986 | 25° C | 44% | 1014.9 hPa | 0 mm | - | - | - |
| 1777994683 | 25.56° C | 44% | 1015 hPa | 0 mm | - | - | - |
| 1777994378 | 25° C | 44% | 1015 hPa | 0 mm | - | - | - |
| 1777994073 | 24.44° C | 45% | 1014.9 hPa | 0 mm | - | - | - |
| 1777993771 | 25° C | 44% | 1014.8 hPa | 0 mm | - | - | - |
| 1777993468 | 24.44° C | 48% | 1014.6 hPa | 0 mm | - | - | - |
| 1777993167 | 24.44° C | 45% | 1014.9 hPa | 0 mm | - | - | - |
| 1777992866 | 24.44° C | 47% | 1014.8 hPa | 0 mm | - | - | - |
| 1777992564 | 23.89° C | 45% | 1014.7 hPa | 0 mm | - | - | - |
| 1777992261 | 23.33° C | 47% | 1014.8 hPa | 0 mm | - | - | - |
| 1777991959 | 23.89° C | 48% | 1014.8 hPa | 0 mm | - | - | - |
| 1777991656 | 23.33° C | 50% | 1015 hPa | 0 mm | - | - | - |
| 1777991353 | 23.33° C | 49% | 1014.9 hPa | 0 mm | - | - | - |
| 1777991050 | 22.78° C | 52% | 1015.1 hPa | 0 mm | - | - | - |
| 1777990747 | 22.22° C | 51% | 1014.8 hPa | 0 mm | - | - | - |
| 1777990445 | 21.67° C | 51% | 1015 hPa | 0 mm | - | - | - |
| 1777989838 | 21.67° C | 51% | 1014.7 hPa | 0 mm | - | - | - |
| 1777989535 | 21.67° C | 54% | 1015 hPa | 0 mm | - | - | - |
| 1777989231 | 21.67° C | 52% | 1014.7 hPa | 0 mm | - | - | - |
| 1777988927 | 21.11° C | 58% | 1015 hPa | 0 mm | - | - | - |
| 1777988624 | 20.56° C | 59% | 1015 hPa | 0 mm | - | - | - |
| 1777988321 | 20.56° C | 58% | 1015 hPa | 0 mm | - | - | - |
* Rain latest hour (hover to see other rain measurements)
** Current wind speed in m/s (hover to see current wind gust speed)